Printer-friendly version

IAU Minor Planet Center

Minor Planet Center

MPEC 2007-E45 : 2007 EV

The following Minor Planet Electronic Circular may be linked-to from your own Web pages, but must not otherwise be redistributed electronically.


Read MPEC 2007-E44 Read MPEC 2007-E46


M.P.E.C. 2007-E45                                Issued 2007 Mar. 11, 00:10 UT

     The Minor Planet Electronic Circulars contain information on unusual
         minor planets and routine data on comets.  They are published
   on behalf of Commission 20 of the International Astronomical Union by the
          Minor Planet Center, Smithsonian Astrophysical Observatory,
                          Cambridge, MA 02138, U.S.A.

             Prepared using the Tamkin Foundation Computer Network

                              MPC@CFA.HARVARD.EDU
          URL http://cfa-www.harvard.edu/iau/mpc.html  ISSN 1523-6714

                                    2007 EV

Observations:
     K07E00V* C2007 03 10.26240 11 47 33.36 +36 59 59.5          19.5 V EE045703
     K07E00V  C2007 03 10.26901 11 47 29.83 +37 00 49.5          19.6 V EE045703
     K07E00V  C2007 03 10.27556 11 47 26.37 +37 01 37.0          19.5 V EE045703
     K07E00V  C2007 03 10.28210 11 47 22.63 +37 02 25.2          20.1 V EE045703
     K07E00V  C2007 03 10.30971 11 47 07.21 +37 05 49.2          19.3 V EE045703
     K07E00V  C2007 03 10.32006 11 47 01.25 +37 07 05.8          19.8 V EE045703
     K07E00V  C2007 03 10.33048 11 46 55.56 +37 08 22.0          19.4 V EE045703
     K07E00V  C2007 03 10.93779 11 41 44.17 +38 26 42.0                 EE045J95
     K07E00V  C2007 03 10.94050 11 41 42.47 +38 27 06.3                 EE045J95
     K07E00V  C2007 03 10.94319 11 41 40.71 +38 27 30.0          19.5 R EE045J95
     K07E00V  C2007 03 10.96279 11 41 26.29 +38 30 47.1          19.4 V EE045A13
     K07E00V  C2007 03 10.96422 11 41 25.33 +38 30 59.6          19.3 V EE045A13
     K07E00V  C2007 03 10.96542 11 41 24.53 +38 31 10.3          19.3 V EE045A13

Observer details:
703 Catalina Sky Survey.  Observers E. C. Beshore, A. P. Odell.  Measurers
    E. C. Beshore, E. J. Christensen, G. J. Garradd, A. R. Gibbs, A. D. Grauer,
    R. E. Hill, R. A. Kowalski, S. M. Larson, R. H. McNaught.  0.68-m Schmidt
    + CCD.
A13 Observatoire Naef, Marly.  Observer P. Kocher.  0.5-m f/3.3 Hypergraph
    + CCD.
J95 Great Shefford.  Observer P. Birtwhistle.  0.40-m f/6.0 Schmidt-Cassegrain
    + CCD.

Orbital elements:
2007 EV                                                  Earth MOID = 0.0033 AU
Epoch 2007 Apr. 10.0 TT = JDT 2454200.5                 MPC
M 324.53951              (2000.0)            P               Q
n   0.86758490     Peri.  268.51373     -0.06988127     +0.99753577
a   1.0887497      Node   357.45378     -0.85022092     -0.06283310
e   0.3040273      Incl.    8.08030     -0.52176718     -0.03121517
P   1.14           H   25.2           G   0.15           U   9
Residuals in seconds of arc
070310 703  1.0-  0.0     070310 703  1.5-  0.3+    070310 A13  0.3+  0.4+
070310 703  0.0   0.8+    070310 703  1.0+  0.4+    070310 A13  0.3+  0.4+
070310 703  1.6+  0.4-    070310 J95  0.6-  0.3-    070310 A13  0.5+  0.6+
070310 703  0.1+  0.7-    070310 J95  0.2+  0.0
070310 703  0.1-  0.4-    070310 J95  0.2+  0.0

Ephemeris:
2007 EV                  a,e,i = 1.09, 0.30, 8                   q = 0.7577
Date    TT    R. A. (2000) Decl.     Delta      r     Elong.  Phase     V
2007 03 11    11 41.02   +38 36.6    0.0363   1.023   145.1    33.7    19.5
2007 03 12    11 28.79   +41 24.5    0.0308   1.018   142.2    36.8    19.2
2007 03 13    11 09.38   +45 13.2    0.0254   1.013   137.7    41.3    18.9
2007 03 14    10 34.82   +50 28.8    0.0204   1.007   130.7    48.4    18.6
2007 03 15    09 22.77   +57 04.3    0.0160   1.002   119.1    60.1    18.4
2007 03 16    06 48.92   +59 52.4    0.0128   0.997   100.1    79.1    18.5
2007 03 17    04 02.44   +47 11.7    0.0120   0.992    74.1   105.2    19.5
2007 03 18    02 40.41   +27 50.4    0.0138   0.986    50.4   129.0    21.5
2007 03 19    02 01.90   +13 35.0    0.0176   0.981    35.2   144.2    23.8
2007 03 20    01 40.68   +04 36.5    0.0223   0.976    26.6   152.8    25.9
2007 03 21    01 27.41   -01 08.8    0.0274   0.971    22.0   157.4    27.5

Timothy B. Spahr             (C) Copyright 2007 MPC           M.P.E.C. 2007-E45

Read MPEC 2007-E44 Read MPEC 2007-E46


Our Web policy. Index to the CBAT/MPC/ICQ pages.


Valid HTML 4.01!